Location: Unspecified
(36.5600°N, 136.6600°E)
Time: 04:37:24
(UTC+09:00)

BlueWalker 3 - Pass Details

Date: 23 June 2024
Orbit: 480 x 491 km, 53.2° (Epoch: 24 July)

Event Time Altitude Azimuth Distance (km) Brightness Sun altitude
Rises 02:11:06 0° 318° (NW) 2,536 5.7 -22.0°
Reaches altitude 10° 02:13:20 10° 325° (NW) 1,655 4.8 -21.8°
Maximum altitude 02:16:56 46° 39° (NE) 655 2.9 -21.4°
Drops below altitude 10° 02:20:32 10° 114° (ESE) 1,651 4.7 -21.0°
Sets 02:22:45 0° 120° (ESE) 2,529 5.6 -20.7°
